Location: Noordwijk
(52.2400°N, 4.4500°E)
Time: 11:08:02
(UTC+00:00)

Tiangong - Visible Passes

Search period start: 28 November 2022 00:00
Search period end: 08 December 2022 00:00
Orbit: 386 x 393 km, 41.5° (Epoch: 28 November)

Date Brightness Start Highest point End Pass type
(mag) Time Alt. Az. Time Alt. Az. Time Alt. Az.
03 Dec 0.6 17:24:29 10° S 17:24:50 10° SSE 17:25:12 10° SSE visible
04 Dec 0.6 18:01:27 10° SSW 18:02:38 12° S 18:02:38 12° S visible
05 Dec 0.6 17:03:33 10° SSW 17:04:48 12° S 17:06:03 10° SSE visible
06 Dec 0.6 17:41:26 10° SSW 17:42:46 12° S 17:43:50 11° SSE visible
07 Dec 0.7 16:43:10 10° SSW 16:44:37 12° S 16:46:03 10° SSE visible
